Flag for China Weather past 2 weeks in Nanjing, Jiangsu, China

Now
86 °F

Partly sunny.


Feels Like: 93 °F
Forecast: 72 / 85 °F
Wind: 8 mph from Northeast

Location: Nanjing

Current Time: Aug 31, 2015 at 1:12:46 PM

Latest Report: Aug 31, 2015 at 12:00 PM


Visibility: 2 mi

Pressure: 29.80 "Hg

Humidity: 66%

Dew point: 73 °F

Location of NanjingLocation

Historic Weather in Nanjing — Graph

°F

Nanjing temperature yesterday

Maximum temperature yesterday: 90 °F (at 1:00 PM)
Minimum temperature yesterday: 72 °F (at 5:00 AM)
Average temperature yesterday: 80 °F

Past Weeks' High & Low Weather Summary

 TemperatureHumidityPressure
High91 °F (Aug 27, 2:00 PM)100% (Aug 17, 7:00 AM)29.83 "Hg (Aug 17, 7:00 AM)
Low68 °F (Aug 23, 6:00 AM)38% (Aug 29, 1:00 PM)29.65 "Hg (Aug 23, 4:00 PM)
Average79 °F80%29.75 "Hg
* Reported Aug 16 11:00 AM — Aug 31 11:00 AM, Nanjing, Weather by CustomWeather, © 2015

Note: Actual official high and low records may vary slightly from our data, if they occured in-between our weather recording intervals... More about our weather records

Advertising

Nanjing weather history for previous 24 hours

 ConditionsComfort  
Time TempWeatherWind HumidityBarometerVisibility
11:00 AM
Mon, Aug 31
84 °FScattered clouds.3 mph70%29.83 "Hg2 mi
10:00 AM84 °FHaze.3 mph70%29.83 "Hg2 mi
9:00 AM81 °FFog.6 mph79%29.83 "Hg1 mi
8:00 AM77 °FFog.6 mph94%29.83 "Hg1 mi
7:00 AM73 °FFog.1 mph100%29.83 "Hg1 mi
6:00 AM72 °FFog.3 mph100%29.80 "Hg1 mi
5:00 AM72 °FFog.3 mph100%29.80 "Hg1 mi
4:00 AM73 °FFog.3 mph94%29.80 "Hg1 mi
3:00 AM73 °FFog.3 mph94%29.80 "Hg1 mi
2:00 AM73 °FFog.3 mph94%29.80 "Hg1 mi
1:00 AM73 °FFog.3 mph94%29.80 "Hg1 mi
12:00 AM75 °FFog.3 mph89%29.80 "Hg1 mi
11:00 PM
Sun, Aug 30
75 °FFog.3 mph89%29.80 "Hg1 mi
10:00 PM75 °FFog.1 mph89%29.83 "Hg1 mi
9:00 PM77 °FFog.6 mph83%29.80 "Hg2 mi
8:00 PM81 °FHaze.6 mph70%29.80 "Hg2 mi
7:00 PM82 °FHaze.10 mph66%29.77 "Hg2 mi
6:00 PM84 °FPassing clouds.3 mph58%29.74 "Hg4 mi
5:00 PM86 °FPassing clouds.3 mph55%29.74 "Hg4 mi
4:00 PM88 °FPassing clouds.6 mph52%29.74 "Hg4 mi
3:00 PM88 °FPassing clouds.8 mph49%29.74 "Hg4 mi
2:00 PM90 °FPassing clouds.6 mph49%29.77 "Hg4 mi
1:00 PM90 °FScattered clouds.3 mph49%29.77 "Hg3 mi
Weather by CustomWeather, © 2015

See weather overviewHow to use our weather pages